Time,TemperatureF,DewpointF,PressureIn,WindDirection,WindDirectionDegrees,WindSpeedMPH,WindSpeedGustMPH,Humidity,HourlyPrecipIn,Conditions,Clouds,dailyrainin,SoftwareType,DateUTC
2013-02-28 00:00:00,34.8,12.6,30.25,NE,44,0.0,3.2,39,0.00,,,0.00,VWS V12.07,2013-02-28 07:00:00,
2013-02-28 00:05:00,34.8,12.7,30.25,NNE,17,0.0,4.5,40,0.00,,,0.00,VWS V12.07,2013-02-28 07:05:00,
2013-02-28 00:10:00,34.8,12.8,30.25,NNE,17,0.0,4.5,40,0.00,,,0.00,VWS V12.07,2013-02-28 07:10:00,
2013-02-28 00:15:00,34.8,12.8,30.25,NNE,17,0.0,4.5,40,0.00,,,0.00,VWS V12.07,2013-02-28 07:15:00,
2013-02-28 00:20:00,35.0,13.1,30.25,NNE,17,0.0,4.5,40,0.00,,,0.00,VWS V12.07,2013-02-28 07:20:00,
2013-02-28 00:25:00,34.7,13.2,30.25,NNE,17,0.0,4.5,41,0.00,,,0.00,VWS V12.07,2013-02-28 07:25:00,
2013-02-28 00:30:00,34.2,13.1,30.24,NNE,17,0.0,4.5,41,0.00,,,0.00,VWS V12.07,2013-02-28 07:30:00,
2013-02-28 00:35:00,33.8,12.8,30.25,NNE,17,0.0,4.5,41,0.00,,,0.00,VWS V12.07,2013-02-28 07:35:00,
2013-02-28 00:40:00,33.4,12.7,30.25,NNE,17,0.0,4.5,42,0.00,,,0.00,VWS V12.07,2013-02-28 07:40:00,
2013-02-28 00:45:00,33.1,12.4,30.24,NNE,17,0.0,4.5,42,0.00,,,0.00,VWS V12.07,2013-02-28 07:45:00,
2013-02-28 00:50:00,33.0,12.4,30.25,NNE,17,0.0,4.5,42,0.00,,,0.00,VWS V12.07,2013-02-28 07:50:00,
2013-02-28 00:55:00,32.7,11.9,30.25,NNE,17,0.0,0.0,42,0.00,,,0.00,VWS V12.07,2013-02-28 07:55:00,
2013-02-28 01:00:00,32.6,11.6,30.26,NNE,17,0.0,0.0,41,0.00,,,0.00,VWS V12.07,2013-02-28 08:00:00,
2013-02-28 01:05:00,32.5,11.4,30.26,NNE,17,0.0,0.0,41,0.00,,,0.00,VWS V12.07,2013-02-28 08:05:00,
2013-02-28 01:10:00,32.4,12.0,30.26,NNE,17,0.0,0.0,42,0.00,,,0.00,VWS V12.07,2013-02-28 08:10:00,
2013-02-28 01:15:00,32.1,12.1,30.25,NNE,17,0.0,0.0,43,0.00,,,0.00,VWS V12.07,2013-02-28 08:15:00,
2013-02-28 01:20:00,32.1,12.3,30.26,NNE,17,0.0,0.0,43,0.00,,,0.00,VWS V12.07,2013-02-28 08:20:00,
2013-02-28 01:25:00,31.7,12.1,30.26,NNE,17,0.0,0.0,44,0.00,,,0.00,VWS V12.07,2013-02-28 08:25:00,
2013-02-28 01:30:00,31.3,11.8,30.25,NNE,17,0.0,0.0,44,0.00,,,0.00,VWS V12.07,2013-02-28 08:30:00,
2013-02-28 01:35:00,31.2,12.0,30.26,NNE,17,0.0,0.0,44,0.00,,,0.00,VWS V12.07,2013-02-28 08:35:00,
2013-02-28 01:40:00,31.1,12.0,30.25,NNE,17,0.0,0.0,44,0.00,,,0.00,VWS V12.07,2013-02-28 08:40:00,
2013-02-28 01:45:00,31.2,12.1,30.26,NNE,17,0.0,0.0,44,0.00,,,0.00,VWS V12.07,2013-02-28 08:45:00,
2013-02-28 01:50:00,31.5,12.2,30.26,NNE,17,0.0,0.0,44,0.00,,,0.00,VWS V12.07,2013-02-28 08:50:00,
2013-02-28 01:55:00,32.0,12.3,30.26,NNE,17,0.0,0.0,43,0.00,,,0.00,VWS V12.07,2013-02-28 08:55:00,
2013-02-28 02:00:00,32.5,12.5,30.26,NNE,17,0.0,0.0,43,0.00,,,0.00,VWS V12.07,2013-02-28 09:00:00,
2013-02-28 02:05:00,32.8,12.8,30.26,NNE,17,0.0,0.0,43,0.00,,,0.00,VWS V12.07,2013-02-28 09:05:00,
2013-02-28 02:10:00,32.9,12.7,30.26,West,259,0.0,4.7,43,0.00,,,0.00,VWS V12.07,2013-02-28 09:10:00,
2013-02-28 02:15:00,33.1,12.7,30.26,West,259,0.0,4.7,42,0.00,,,0.00,VWS V12.07,2013-02-28 09:15:00,
2013-02-28 02:20:00,33.1,12.5,30.26,West,259,0.0,4.7,42,0.00,,,0.00,VWS V12.07,2013-02-28 09:20:00,
2013-02-28 02:25:00,33.1,12.7,30.25,West,259,0.0,4.7,42,0.00,,,0.00,VWS V12.07,2013-02-28 09:25:00,
2013-02-28 02:30:00,33.3,12.8,30.25,West,259,0.0,4.7,42,0.00,,,0.00,VWS V12.07,2013-02-28 09:30:00,
2013-02-28 02:35:00,33.4,12.8,30.25,WNW,287,4.2,4.7,42,0.00,,,0.00,VWS V12.07,2013-02-28 09:35:00,
2013-02-28 02:40:00,33.5,12.6,30.25,West,280,0.0,4.7,41,0.00,,,0.00,VWS V12.07,2013-02-28 09:40:00,
2013-02-28 02:45:00,33.7,12.5,30.25,West,280,0.0,4.7,41,0.00,,,0.00,VWS V12.07,2013-02-28 09:45:00,
2013-02-28 02:50:00,33.6,12.5,30.25,West,280,0.0,4.7,41,0.00,,,0.00,VWS V12.07,2013-02-28 09:50:00,
2013-02-28 02:55:00,33.7,12.7,30.24,West,280,0.0,4.7,41,0.00,,,0.00,VWS V12.07,2013-02-28 09:55:00,
2013-02-28 03:00:00,33.7,12.6,30.24,West,280,0.0,4.7,41,0.00,,,0.00,VWS V12.07,2013-02-28 10:00:00,
2013-02-28 03:05:00,33.7,12.6,30.24,West,280,0.0,4.7,41,0.00,,,0.00,VWS V12.07,2013-02-28 10:05:00,
2013-02-28 03:10:00,33.6,12.5,30.24,West,280,0.0,4.7,41,0.00,,,0.00,VWS V12.07,2013-02-28 10:10:00,
2013-02-28 03:15:00,33.4,12.2,30.24,West,280,0.0,4.7,41,0.00,,,0.00,VWS V12.07,2013-02-28 10:15:00,
2013-02-28 03:20:00,33.2,12.0,30.24,West,280,0.0,4.7,41,0.00,,,0.00,VWS V12.07,2013-02-28 10:20:00,
2013-02-28 03:25:00,33.3,12.1,30.24,WNW,301,0.0,4.7,41,0.00,,,0.00,VWS V12.07,2013-02-28 10:25:00,
2013-02-28 03:30:00,33.4,12.1,30.24,NW,311,0.0,4.7,41,0.00,,,0.00,VWS V12.07,2013-02-28 10:30:00,
2013-02-28 03:35:00,33.5,12.1,30.24,North,354,0.0,4.7,41,0.00,,,0.00,VWS V12.07,2013-02-28 10:35:00,
2013-02-28 03:40:00,33.6,12.4,30.24,NNW,342,0.0,5.4,41,0.00,,,0.00,VWS V12.07,2013-02-28 10:40:00,
2013-02-28 03:45:00,33.5,12.6,30.24,North,356,3.0,6.1,42,0.00,,,0.00,VWS V12.07,2013-02-28 10:45:00,
2013-02-28 03:50:00,33.3,12.8,30.24,NNW,329,0.0,6.1,42,0.00,,,0.00,VWS V12.07,2013-02-28 10:50:00,
2013-02-28 03:55:00,32.9,12.7,30.24,NW,307,0.0,6.1,43,0.00,,,0.00,VWS V12.07,2013-02-28 10:55:00,
2013-02-28 04:00:00,32.5,12.6,30.24,NW,307,4.4,6.8,43,0.00,,,0.00,VWS V12.07,2013-02-28 11:00:00,
2013-02-28 04:05:00,32.3,12.6,30.24,WNW,300,0.0,7.4,44,0.00,,,0.00,VWS V12.07,2013-02-28 11:05:00,
2013-02-28 04:10:00,32.4,12.8,30.24,WNW,285,3.1,7.4,44,0.00,,,0.00,VWS V12.07,2013-02-28 11:10:00,
2013-02-28 04:15:00,32.4,12.7,30.24,North,356,0.0,7.4,44,0.00,,,0.00,VWS V12.07,2013-02-28 11:15:00,
2013-02-28 04:20:00,32.5,12.7,30.24,WNW,298,4.2,7.4,43,0.00,,,0.00,VWS V12.07,2013-02-28 11:20:00,
2013-02-28 04:25:00,32.7,12.7,30.25,North,356,4.5,7.4,43,0.00,,,0.00,VWS V12.07,2013-02-28 11:25:00,
2013-02-28 04:30:00,32.9,12.6,30.25,NW,316,4.3,7.4,42,0.00,,,0.00,VWS V12.07,2013-02-28 11:30:00,
2013-02-28 04:35:00,32.9,12.7,30.26,WNW,287,0.0,7.4,43,0.00,,,0.00,VWS V12.07,2013-02-28 11:35:00,
2013-02-28 04:40:00,32.8,12.7,30.26,NNW,335,0.0,7.4,43,0.00,,,0.00,VWS V12.07,2013-02-28 11:40:00,
2013-02-28 04:45:00,32.7,12.7,30.26,NNW,342,0.0,7.4,43,0.00,,,0.00,VWS V12.07,2013-02-28 11:45:00,
2013-02-28 04:50:00,32.5,12.7,30.26,NNW,347,0.0,7.4,43,0.00,,,0.00,VWS V12.07,2013-02-28 11:50:00,
2013-02-28 04:55:00,32.3,12.6,30.27,NW,319,0.0,6.8,44,0.00,,,0.00,VWS V12.07,2013-02-28 11:55:00,
2013-02-28 05:00:00,32.1,12.5,30.27,NW,319,0.0,6.8,44,0.00,,,0.00,VWS V12.07,2013-02-28 12:00:00,
2013-02-28 05:05:00,32.0,12.6,30.27,NW,319,0.0,6.8,44,0.00,,,0.00,VWS V12.07,2013-02-28 12:05:00,
2013-02-28 05:10:00,31.7,12.6,30.27,NNW,335,5.2,6.8,44,0.00,,,0.00,VWS V12.07,2013-02-28 12:10:00,
2013-02-28 05:15:00,31.7,12.6,30.28,North,7,0.0,6.8,45,0.00,,,0.00,VWS V12.07,2013-02-28 12:15:00,
2013-02-28 05:20:00,31.8,12.7,30.28,North,352,0.0,6.8,45,0.00,,,0.00,VWS V12.07,2013-02-28 12:20:00,
2013-02-28 05:25:00,31.8,12.7,30.28,North,359,0.0,6.8,45,0.00,,,0.00,VWS V12.07,2013-02-28 12:25:00,
2013-02-28 05:30:00,31.6,12.5,30.28,NNW,339,0.0,6.8,45,0.00,,,0.00,VWS V12.07,2013-02-28 12:30:00,
2013-02-28 05:35:00,31.5,12.5,30.28,NNW,346,2.8,6.8,45,0.00,,,0.00,VWS V12.07,2013-02-28 12:35:00,
2013-02-28 05:40:00,31.3,12.4,30.29,West,281,0.0,6.8,45,0.00,,,0.00,VWS V12.07,2013-02-28 12:40:00,
2013-02-28 05:46:00,31.2,12.6,30.29,West,281,0.0,6.8,45,0.00,,,0.00,VWS V12.07,2013-02-28 12:46:00,
2013-02-28 05:51:00,31.1,12.6,30.29,West,281,0.0,6.8,46,0.00,,,0.00,VWS V12.07,2013-02-28 12:51:00,
2013-02-28 05:56:00,30.9,12.5,30.29,West,281,0.0,5.3,46,0.00,,,0.00,VWS V12.07,2013-02-28 12:56:00,
2013-02-28 06:00:00,30.8,12.4,30.29,West,281,0.0,5.3,46,0.00,,,0.00,VWS V12.07,2013-02-28 13:00:00,
2013-02-28 06:01:00,30.8,12.4,30.30,West,281,0.0,5.3,46,0.00,,,0.00,VWS V12.07,2013-02-28 13:01:00,
2013-02-28 06:06:00,30.7,12.4,30.30,West,281,0.0,5.3,46,0.00,,,0.00,VWS V12.07,2013-02-28 13:06:00,
2013-02-28 06:11:00,30.6,12.3,30.30,West,281,0.0,5.3,46,0.00,,,0.00,VWS V12.07,2013-02-28 13:11:00,
2013-02-28 06:16:00,30.6,12.2,30.30,NNW,340,0.0,5.3,46,0.00,,,0.00,VWS V12.07,2013-02-28 13:16:00,
2013-02-28 06:21:00,30.7,12.3,30.31,NNW,340,0.0,5.3,46,0.00,,,0.00,VWS V12.07,2013-02-28 13:21:00,
2013-02-28 06:26:00,30.7,12.3,30.30,NNW,340,0.0,5.3,46,0.00,,,0.00,VWS V12.07,2013-02-28 13:26:00,
2013-02-28 06:30:00,30.7,12.3,30.31,NNW,340,0.0,4.7,46,0.00,,,0.00,VWS V12.07,2013-02-28 13:30:00,
2013-02-28 06:31:00,30.6,12.2,30.31,NNW,340,0.0,5.3,46,0.00,,,0.00,VWS V12.07,2013-02-28 13:31:00,
2013-02-28 06:36:00,30.5,12.3,30.31,NNW,340,0.0,5.3,46,0.00,,,0.00,VWS V12.07,2013-02-28 13:36:00,
2013-02-28 06:41:00,30.5,12.2,30.31,WNW,283,0.0,5.3,46,0.00,,,0.00,VWS V12.07,2013-02-28 13:41:00,
2013-02-28 06:46:00,30.7,12.2,30.31,WNW,283,0.0,5.3,46,0.00,,,0.00,VWS V12.07,2013-02-28 13:46:00,
2013-02-28 06:51:00,30.8,12.3,30.31,WNW,283,0.0,5.3,46,0.00,,,0.00,VWS V12.07,2013-02-28 13:51:00,
2013-02-28 06:56:00,30.8,12.2,30.31,WNW,283,0.0,2.0,46,0.00,,,0.00,VWS V12.07,2013-02-28 13:56:00,
2013-02-28 07:00:00,30.7,12.2,30.31,WNW,283,0.0,2.0,46,0.00,,,0.00,VWS V12.07,2013-02-28 14:00:00,
2013-02-28 07:01:00,30.8,12.3,30.31,WNW,283,0.0,2.0,46,0.00,,,0.00,VWS V12.07,2013-02-28 14:01:00,
2013-02-28 07:06:00,30.7,12.2,30.31,WNW,283,0.0,2.0,46,0.00,,,0.00,VWS V12.07,2013-02-28 14:06:00,
2013-02-28 07:11:00,30.6,12.1,30.31,WNW,283,0.0,2.0,46,0.00,,,0.00,VWS V12.07,2013-02-28 14:11:00,
2013-02-28 07:16:00,30.6,12.2,30.31,WNW,283,0.0,2.0,46,0.00,,,0.00,VWS V12.07,2013-02-28 14:16:00,
2013-02-28 07:21:00,30.7,12.3,30.31,WNW,283,0.0,3.5,46,0.00,,,0.00,VWS V12.07,2013-02-28 14:21:00,
2013-02-28 07:26:00,30.8,12.3,30.32,WNW,283,0.0,3.5,46,0.00,,,0.00,VWS V12.07,2013-02-28 14:26:00,
2013-02-28 07:30:00,30.8,12.3,30.32,WNW,283,0.0,3.5,46,0.00,,,0.00,VWS V12.07,2013-02-28 14:30:00,
2013-02-28 07:31:00,30.9,12.4,30.32,WNW,283,0.0,3.5,46,0.00,,,0.00,VWS V12.07,2013-02-28 14:31:00,
2013-02-28 07:36:00,31.0,12.5,30.31,WNW,283,0.0,3.5,46,0.00,,,0.00,VWS V12.07,2013-02-28 14:36:00,
2013-02-28 07:41:00,31.3,12.6,30.31,WNW,298,0.0,5.7,45,0.00,,,0.00,VWS V12.07,2013-02-28 14:41:00,
2013-02-28 07:46:00,31.8,12.9,30.31,NW,308,0.0,5.7,45,0.00,,,0.00,VWS V12.07,2013-02-28 14:46:00,
2013-02-28 07:51:00,32.0,12.9,30.31,NW,311,0.0,5.7,45,0.00,,,0.00,VWS V12.07,2013-02-28 14:51:00,
2013-02-28 07:56:00,32.5,13.1,30.31,NNW,343,0.0,5.7,44,0.00,,,0.00,VWS V12.07,2013-02-28 14:56:00,
2013-02-28 08:00:00,32.9,13.3,30.31,NNW,343,0.0,5.7,44,0.00,,,0.00,VWS V12.07,2013-02-28 15:00:00,
2013-02-28 08:01:00,33.1,13.4,30.31,NNW,343,0.0,5.7,44,0.00,,,0.00,VWS V12.07,2013-02-28 15:01:00,
2013-02-28 08:06:00,33.7,13.5,30.32,North,349,0.0,5.7,43,0.00,,,0.00,VWS V12.07,2013-02-28 15:06:00,
2013-02-28 08:11:00,34.1,13.5,30.31,NW,316,0.0,5.7,42,0.00,,,0.00,VWS V12.07,2013-02-28 15:11:00,
2013-02-28 08:16:00,34.9,14.0,30.31,North,8,0.0,5.8,42,0.00,,,0.00,VWS V12.07,2013-02-28 15:16:00,
2013-02-28 08:21:00,35.5,14.2,30.31,North,8,0.0,5.8,41,0.00,,,0.00,VWS V12.07,2013-02-28 15:21:00,
2013-02-28 08:26:00,36.1,14.3,30.31,North,8,0.0,5.8,40,0.00,,,0.00,VWS V12.07,2013-02-28 15:26:00,
2013-02-28 08:30:00,36.6,14.6,30.31,North,8,0.0,5.8,40,0.00,,,0.00,VWS V12.07,2013-02-28 15:30:00,
2013-02-28 08:31:00,36.8,14.5,30.31,NW,318,0.0,6.1,40,0.00,,,0.00,VWS V12.07,2013-02-28 15:31:00,
2013-02-28 08:36:00,37.4,14.8,30.31,NW,308,0.0,6.1,39,0.00,,,0.00,VWS V12.07,2013-02-28 15:36:00,
2013-02-28 08:41:00,38.0,15.1,30.31,NW,308,0.0,6.1,39,0.00,,,0.00,VWS V12.07,2013-02-28 15:41:00,
2013-02-28 08:46:00,38.5,15.1,30.31,North,350,0.0,6.1,38,0.00,,,0.00,VWS V12.07,2013-02-28 15:46:00,
2013-02-28 08:51:00,39.2,15.2,30.31,NNW,342,2.9,6.1,37,0.00,,,0.00,VWS V12.07,2013-02-28 15:51:00,
2013-02-28 08:56:00,39.6,15.5,30.32,NNW,335,0.0,6.1,37,0.00,,,0.00,VWS V12.07,2013-02-28 15:56:00,
2013-02-28 09:00:00,39.8,15.4,30.31,NNW,335,0.0,6.1,37,0.00,,,0.00,VWS V12.07,2013-02-28 16:00:00,
2013-02-28 09:01:00,40.2,15.6,30.31,NNW,335,4.3,6.1,36,0.00,,,0.00,VWS V12.07,2013-02-28 16:01:00,
2013-02-28 09:06:00,40.5,15.7,30.32,NW,315,0.0,6.1,36,0.00,,,0.00,VWS V12.07,2013-02-28 16:06:00,
2013-02-28 09:11:00,41.1,15.9,30.32,NW,305,0.0,7.0,36,0.00,,,0.00,VWS V12.07,2013-02-28 16:11:00,
2013-02-28 09:16:00,41.7,15.8,30.32,West,278,3.5,7.0,35,0.00,,,0.00,VWS V12.07,2013-02-28 16:16:00,
2013-02-28 09:21:00,42.5,16.1,30.31,West,273,0.0,7.0,34,0.00,,,0.00,VWS V12.07,2013-02-28 16:21:00,
2013-02-28 09:26:00,43.6,15.7,30.31,West,281,0.0,7.0,32,0.00,,,0.00,VWS V12.07,2013-02-28 16:26:00,
2013-02-28 09:30:00,44.3,15.4,30.32,West,281,0.0,7.0,31,0.00,,,0.00,VWS V12.07,2013-02-28 16:30:00,
2013-02-28 09:31:00,44.9,15.1,30.31,NW,311,0.0,7.0,30,0.00,,,0.00,VWS V12.07,2013-02-28 16:31:00,
2013-02-28 09:36:00,46.2,15.1,30.32,NE,38,0.0,7.0,28,0.00,,,0.00,VWS V12.07,2013-02-28 16:36:00,
2013-02-28 09:41:00,46.7,15.9,30.32,North,8,0.0,7.0,29,0.00,,,0.00,VWS V12.07,2013-02-28 16:41:00,
2013-02-28 09:46:00,47.3,14.4,30.32,WNW,283,0.0,7.0,26,0.00,,,0.00,VWS V12.07,2013-02-28 16:46:00,
2013-02-28 09:51:00,47.7,13.8,30.32,NNE,27,0.0,7.0,25,0.00,,,0.00,VWS V12.07,2013-02-28 16:51:00,
2013-02-28 09:56:00,48.3,15.7,30.32,NNE,27,0.0,6.3,27,0.00,,,0.00,VWS V12.07,2013-02-28 16:56:00,
2013-02-28 10:00:00,48.5,15.5,30.31,NNE,27,0.0,6.3,26,0.00,,,0.00,VWS V12.07,2013-02-28 17:00:00,
2013-02-28 10:01:00,48.9,15.0,30.32,NNE,27,0.0,6.3,25,0.00,,,0.00,VWS V12.07,2013-02-28 17:01:00,
2013-02-28 10:06:00,49.6,14.0,30.31,NNE,27,0.0,6.3,24,0.00,,,0.00,VWS V12.07,2013-02-28 17:06:00,
2013-02-28 10:11:00,49.9,13.5,30.31,NNE,27,0.0,6.3,23,0.00,,,0.00,VWS V12.07,2013-02-28 17:11:00,
2013-02-28 10:16:00,50.3,13.8,30.31,NNE,27,0.0,6.3,23,0.00,,,0.00,VWS V12.07,2013-02-28 17:16:00,
2013-02-28 10:21:00,50.8,13.3,30.31,NNE,27,0.0,6.3,22,0.00,,,0.00,VWS V12.07,2013-02-28 17:21:00,
2013-02-28 10:26:00,51.1,13.2,30.31,NNE,27,0.0,6.3,22,0.00,,,0.00,VWS V12.07,2013-02-28 17:26:00,
2013-02-28 10:30:00,50.9,12.8,30.31,NW,315,0.0,3.4,21,0.00,,,0.00,VWS V12.07,2013-02-28 17:30:00,
2013-02-28 10:31:00,51.0,13.1,30.31,NW,315,0.0,6.3,22,0.00,,,0.00,VWS V12.07,2013-02-28 17:31:00,
2013-02-28 10:36:00,51.1,13.2,30.31,WNW,292,0.0,6.3,22,0.00,,,0.00,VWS V12.07,2013-02-28 17:36:00,
2013-02-28 10:41:00,51.3,12.8,30.32,WSW,256,0.0,6.3,21,0.00,,,0.00,VWS V12.07,2013-02-28 17:41:00,
2013-02-28 10:46:00,51.5,12.9,30.32,North,349,4.3,6.3,21,0.00,,,0.00,VWS V12.07,2013-02-28 17:46:00,
2013-02-28 10:51:00,52.0,12.4,30.32,NE,39,0.0,6.3,20,0.00,,,0.00,VWS V12.07,2013-02-28 17:51:00,
2013-02-28 10:56:00,52.1,12.7,30.32,NE,39,0.0,5.8,20,0.00,,,0.00,VWS V12.07,2013-02-28 17:56:00,
2013-02-28 11:00:00,52.2,12.6,30.32,NNW,330,3.1,7.5,20,0.00,,,0.00,VWS V12.07,2013-02-28 18:00:00,
2013-02-28 11:01:00,52.3,12.3,30.32,SW,225,0.0,7.5,20,0.00,,,0.00,VWS V12.07,2013-02-28 18:01:00,
2013-02-28 11:06:00,52.7,12.8,30.32,North,11,0.0,7.5,20,0.00,,,0.00,VWS V12.07,2013-02-28 18:06:00,
2013-02-28 11:11:00,53.1,12.6,30.32,North,6,0.0,8.7,20,0.00,,,0.00,VWS V12.07,2013-02-28 18:11:00,
2013-02-28 11:16:00,54.0,12.9,30.32,WNW,298,3.5,8.7,19,0.00,,,0.00,VWS V12.07,2013-02-28 18:16:00,
2013-02-28 11:21:00,54.2,12.4,30.32,North,349,2.3,8.7,19,0.00,,,0.00,VWS V12.07,2013-02-28 18:21:00,
2013-02-28 11:26:00,54.6,12.5,30.32,West,271,0.0,8.8,18,0.00,,,0.00,VWS V12.07,2013-02-28 18:26:00,
2013-02-28 11:30:00,54.7,12.5,30.32,NW,311,0.0,8.8,18,0.00,,,0.00,VWS V12.07,2013-02-28 18:30:00,
2013-02-28 11:31:00,55.0,12.8,30.32,West,262,0.0,8.8,18,0.00,,,0.00,VWS V12.07,2013-02-28 18:31:00,
2013-02-28 11:36:00,55.3,12.3,30.32,North,359,0.0,8.8,18,0.00,,,0.00,VWS V12.07,2013-02-28 18:36:00,
2013-02-28 11:41:00,55.7,12.7,30.32,WNW,292,2.7,8.8,18,0.00,,,0.00,VWS V12.07,2013-02-28 18:41:00,
2013-02-28 11:46:00,56.2,12.6,30.32,NNW,345,4.1,10.1,18,0.00,,,0.00,VWS V12.07,2013-02-28 18:46:00,
2013-02-28 11:51:00,56.4,12.7,30.33,NE,44,0.0,10.1,17,0.00,,,0.00,VWS V12.07,2013-02-28 18:51:00,
2013-02-28 11:56:00,56.5,12.8,30.33,WSW,257,3.2,10.1,17,0.00,,,0.00,VWS V12.07,2013-02-28 18:56:00,
2013-02-28 12:00:00,56.7,12.8,30.33,NNW,339,0.0,10.1,17,0.00,,,0.00,VWS V12.07,2013-02-28 19:00:00,
2013-02-28 12:01:00,56.9,12.7,30.33,WNW,284,9.1,10.1,17,0.00,,,0.00,VWS V12.07,2013-02-28 19:01:00,
2013-02-28 12:06:00,57.4,13.0,30.33,NE,52,4.4,10.1,17,0.00,,,0.00,VWS V12.07,2013-02-28 19:06:00,
2013-02-28 12:11:00,57.7,12.7,30.33,WNW,283,0.0,10.1,17,0.00,,,0.00,VWS V12.07,2013-02-28 19:11:00,
2013-02-28 12:16:00,58.1,13.5,30.33,WNW,283,0.0,10.1,17,0.00,,,0.00,VWS V12.07,2013-02-28 19:16:00,
2013-02-28 12:21:00,58.2,12.8,30.33,WNW,292,0.0,10.1,16,0.00,,,0.00,VWS V12.07,2013-02-28 19:21:00,
2013-02-28 12:26:00,58.4,12.7,30.32,West,263,0.0,10.1,16,0.00,,,0.00,VWS V12.07,2013-02-28 19:26:00,
2013-02-28 12:30:00,58.6,12.7,30.32,West,263,0.0,9.1,16,0.00,,,0.00,VWS V12.07,2013-02-28 19:30:00,
2013-02-28 12:31:00,58.7,12.8,30.31,WNW,298,3.1,10.1,16,0.00,,,0.00,VWS V12.07,2013-02-28 19:31:00,
2013-02-28 12:36:00,59.0,12.8,30.31,NNE,17,5.3,10.1,16,0.00,,,0.00,VWS V12.07,2013-02-28 19:36:00,
2013-02-28 12:41:00,59.4,12.6,30.31,North,356,3.2,10.1,16,0.00,,,0.00,VWS V12.07,2013-02-28 19:41:00,
2013-02-28 12:46:00,60.2,13.0,30.31,NNW,330,2.6,10.1,15,0.00,,,0.00,VWS V12.07,2013-02-28 19:46:00,
2013-02-28 12:51:00,60.5,13.5,30.31,North,359,0.0,10.1,16,0.00,,,0.00,VWS V12.07,2013-02-28 19:51:00,
2013-02-28 12:56:00,60.9,12.5,30.31,North,6,0.0,7.5,15,0.00,,,0.00,VWS V12.07,2013-02-28 19:56:00,
2013-02-28 13:00:00,61.0,13.2,30.30,North,6,0.0,7.5,15,0.00,,,0.00,VWS V12.07,2013-02-28 20:00:00,
2013-02-28 13:01:00,61.1,12.7,30.30,NNE,25,0.0,7.5,15,0.00,,,0.00,VWS V12.07,2013-02-28 20:01:00,
2013-02-28 13:06:00,61.2,12.3,30.30,NE,38,0.0,7.5,14,0.00,,,0.00,VWS V12.07,2013-02-28 20:06:00,
2013-02-28 13:11:00,60.3,12.2,30.29,ENE,63,0.0,7.5,15,0.00,,,0.00,VWS V12.07,2013-02-28 20:11:00,
2013-02-28 13:16:00,60.0,12.2,30.29,NNE,15,0.0,7.5,15,0.00,,,0.00,VWS V12.07,2013-02-28 20:16:00,
2013-02-28 13:21:00,60.5,12.6,30.29,NNE,15,0.0,7.5,15,0.00,,,0.00,VWS V12.07,2013-02-28 20:21:00,
2013-02-28 13:26:00,60.9,12.7,30.28,SSE,160,0.0,7.5,15,0.00,,,0.00,VWS V12.07,2013-02-28 20:26:00,
2013-02-28 13:30:00,61.2,13.4,30.28,SSE,160,0.0,6.9,15,0.00,,,0.00,VWS V12.07,2013-02-28 20:30:00,
2013-02-28 13:31:00,61.4,13.2,30.28,SSE,160,0.0,7.5,15,0.00,,,0.00,VWS V12.07,2013-02-28 20:31:00,
2013-02-28 13:36:00,62.1,13.3,30.28,SSE,160,0.0,7.5,15,0.00,,,0.00,VWS V12.07,2013-02-28 20:36:00,
2013-02-28 13:41:00,62.5,12.7,30.28,SSE,160,0.0,7.5,14,0.00,,,0.00,VWS V12.07,2013-02-28 20:41:00,
2013-02-28 13:46:00,62.7,13.8,30.28,WNW,302,2.6,7.5,15,0.00,,,0.00,VWS V12.07,2013-02-28 20:46:00,
2013-02-28 13:51:00,62.9,12.8,30.28,NW,307,6.3,7.5,14,0.00,,,0.00,VWS V12.07,2013-02-28 20:51:00,
2013-02-28 13:56:00,63.0,13.1,30.28,NNE,31,0.0,6.3,14,0.00,,,0.00,VWS V12.07,2013-02-28 20:56:00,
2013-02-28 14:00:00,63.3,13.3,30.28,SW,235,3.1,6.5,14,0.00,,,0.00,VWS V12.07,2013-02-28 21:00:00,
2013-02-28 14:01:00,63.4,12.4,30.27,SSW,200,0.0,6.5,13,0.00,,,0.00,VWS V12.07,2013-02-28 21:01:00,
2013-02-28 14:06:00,63.1,12.7,30.27,NNE,24,0.0,6.5,14,0.00,,,0.00,VWS V12.07,2013-02-28 21:06:00,
2013-02-28 14:11:00,62.6,12.6,30.27,South,179,0.0,6.5,14,0.00,,,0.00,VWS V12.07,2013-02-28 21:11:00,
2013-02-28 14:16:00,62.6,12.8,30.26,NNE,30,4.7,6.5,14,0.00,,,0.00,VWS V12.07,2013-02-28 21:16:00,
2013-02-28 14:21:00,62.9,12.5,30.26,WNW,297,4.8,6.5,14,0.00,,,0.00,VWS V12.07,2013-02-28 21:21:00,
2013-02-28 14:26:00,62.8,12.8,30.26,ENE,65,0.0,6.5,14,0.00,,,0.00,VWS V12.07,2013-02-28 21:26:00,
2013-02-28 14:30:00,62.9,12.7,30.26,North,0,0.0,6.2,14,0.00,,,0.00,VWS V12.07,2013-02-28 21:30:00,
2013-02-28 14:31:00,63.1,13.0,30.26,NNW,329,2.9,6.5,14,0.00,,,0.00,VWS V12.07,2013-02-28 21:31:00,
2013-02-28 14:36:00,63.9,13.3,30.26,NW,319,0.0,6.5,14,0.00,,,0.00,VWS V12.07,2013-02-28 21:36:00,
2013-02-28 14:41:00,64.7,12.9,30.26,NW,319,0.0,6.5,13,0.00,,,0.00,VWS V12.07,2013-02-28 21:41:00,
2013-02-28 14:46:00,64.4,12.3,30.26,North,359,0.0,6.5,13,0.00,,,0.00,VWS V12.07,2013-02-28 21:46:00,
2013-02-28 14:51:00,64.0,12.0,30.26,NE,46,0.0,9.6,13,0.00,,,0.00,VWS V12.07,2013-02-28 21:51:00,
2013-02-28 14:56:00,63.5,12.3,30.26,East,79,5.4,9.7,13,0.00,,,0.00,VWS V12.07,2013-02-28 21:56:00,
2013-02-28 15:00:00,63.5,12.5,30.26,NNE,17,2.2,9.7,13,0.00,,,0.00,VWS V12.07,2013-02-28 22:00:00,
2013-02-28 15:01:00,63.6,12.6,30.26,NNE,22,0.0,9.7,13,0.00,,,0.00,VWS V12.07,2013-02-28 22:01:00,
2013-02-28 15:06:00,63.5,12.7,30.26,ENE,59,7.9,10.7,14,0.00,,,0.00,VWS V12.07,2013-02-28 22:06:00,
2013-02-28 15:11:00,63.4,12.4,30.26,East,90,0.0,10.7,13,0.00,,,0.00,VWS V12.07,2013-02-28 22:11:00,
2013-02-28 15:16:00,63.6,12.6,30.26,NNE,25,6.0,10.7,13,0.00,,,0.00,VWS V12.07,2013-02-28 22:16:00,
2013-02-28 15:21:00,63.9,11.9,30.26,NNE,18,6.5,10.7,13,0.00,,,0.00,VWS V12.07,2013-02-28 22:21:00,
2013-02-28 15:26:00,64.0,12.0,30.26,NNE,14,0.0,11.6,13,0.00,,,0.00,VWS V12.07,2013-02-28 22:26:00,
2013-02-28 15:30:00,64.1,12.1,30.26,East,90,3.0,11.6,13,0.00,,,0.00,VWS V12.07,2013-02-28 22:30:00,
2013-02-28 15:31:00,64.1,11.8,30.26,NE,34,4.8,11.6,13,0.00,,,0.00,VWS V12.07,2013-02-28 22:31:00,
2013-02-28 15:36:00,64.1,11.6,30.26,NNE,21,5.7,11.6,13,0.00,,,0.00,VWS V12.07,2013-02-28 22:36:00,
2013-02-28 15:41:00,64.3,11.9,30.26,North,1,0.0,11.6,13,0.00,,,0.00,VWS V12.07,2013-02-28 22:41:00,
2013-02-28 15:46:00,64.4,11.8,30.26,ENE,76,0.0,11.6,13,0.00,,,0.00,VWS V12.07,2013-02-28 22:46:00,
2013-02-28 15:51:00,64.3,11.6,30.25,ENE,72,0.0,11.6,12,0.00,,,0.00,VWS V12.07,2013-02-28 22:51:00,
2013-02-28 15:56:00,64.3,11.6,30.26,NNE,21,0.0,11.2,12,0.00,,,0.00,VWS V12.07,2013-02-28 22:56:00,
2013-02-28 16:00:00,64.3,11.6,30.26,WNW,294,0.0,11.2,12,0.00,,,0.00,VWS V12.07,2013-02-28 23:00:00,
2013-02-28 16:01:00,64.5,12.1,30.25,WNW,294,0.0,11.2,13,0.00,,,0.00,VWS V12.07,2013-02-28 23:01:00,
2013-02-28 16:06:00,64.4,11.4,30.24,WNW,294,0.0,11.2,12,0.00,,,0.00,VWS V12.07,2013-02-28 23:06:00,
2013-02-28 16:11:00,64.6,11.6,30.24,WNW,294,0.0,11.2,12,0.00,,,0.00,VWS V12.07,2013-02-28 23:11:00,
2013-02-28 16:16:00,64.5,11.4,30.24,WNW,294,0.0,11.2,12,0.00,,,0.00,VWS V12.07,2013-02-28 23:16:00,
2013-02-28 16:21:00,64.6,11.4,30.24,ENE,65,0.0,11.2,12,0.00,,,0.00,VWS V12.07,2013-02-28 23:21:00,
2013-02-28 16:26:00,64.5,11.7,30.24,East,86,0.0,11.2,12,0.00,,,0.00,VWS V12.07,2013-02-28 23:26:00,
2013-02-28 16:30:00,64.7,11.9,30.24,East,86,0.0,7.0,12,0.00,,,0.00,VWS V12.07,2013-02-28 23:30:00,
2013-02-28 16:31:00,64.7,11.7,30.24,East,86,0.0,11.2,12,0.00,,,0.00,VWS V12.07,2013-02-28 23:31:00,
2013-02-28 16:36:00,64.9,11.7,30.24,East,90,0.0,11.2,12,0.00,,,0.00,VWS V12.07,2013-02-28 23:36:00,
2013-02-28 16:41:00,64.7,11.5,30.24,ENE,73,0.0,11.2,12,0.00,,,0.00,VWS V12.07,2013-02-28 23:41:00,
2013-02-28 16:46:00,64.5,11.4,30.24,North,359,0.0,11.2,12,0.00,,,0.00,VWS V12.07,2013-02-28 23:46:00,
2013-02-28 16:51:00,64.3,11.2,30.24,NE,55,0.0,11.2,12,0.00,,,0.00,VWS V12.07,2013-02-28 23:51:00,
2013-02-28 16:56:00,64.0,11.1,30.24,ENE,70,0.0,6.8,12,0.00,,,0.00,VWS V12.07,2013-02-28 23:56:00,
2013-02-28 17:00:00,63.9,11.1,30.24,NE,53,0.0,6.8,12,0.00,,,0.00,VWS V12.07,2013-03-01 00:00:00,
2013-02-28 17:01:00,64.0,11.1,30.24,East,100,5.3,6.8,12,0.00,,,0.00,VWS V12.07,2013-03-01 00:01:00,
2013-02-28 17:06:00,63.7,11.3,30.24,ENE,72,0.0,6.8,13,0.00,,,0.00,VWS V12.07,2013-03-01 00:06:00,
2013-02-28 17:11:00,63.9,11.2,30.24,ENE,72,0.0,6.8,12,0.00,,,0.00,VWS V12.07,2013-03-01 00:11:00,
2013-02-28 17:16:00,63.9,11.2,30.25,NNE,30,0.0,6.8,12,0.00,,,0.00,VWS V12.07,2013-03-01 00:16:00,
2013-02-28 17:21:00,63.8,11.3,30.24,NNE,30,0.0,6.8,13,0.00,,,0.00,VWS V12.07,2013-03-01 00:21:00,
2013-02-28 17:26:00,63.7,11.3,30.24,NNE,30,0.0,6.8,13,0.00,,,0.00,VWS V12.07,2013-03-01 00:26:00,
2013-02-28 17:30:00,63.7,11.6,30.24,NNE,30,0.0,5.8,13,0.00,,,0.00,VWS V12.07,2013-03-01 00:30:00,
2013-02-28 17:31:00,63.7,11.8,30.24,NNE,30,0.0,6.8,13,0.00,,,0.00,VWS V12.07,2013-03-01 00:31:00,
2013-02-28 17:36:00,63.5,11.8,30.24,East,90,0.0,6.8,13,0.00,,,0.00,VWS V12.07,2013-03-01 00:36:00,
2013-02-28 17:41:00,63.3,12.2,30.24,East,90,0.0,6.8,13,0.00,,,0.00,VWS V12.07,2013-03-01 00:41:00,
2013-02-28 17:46:00,63.0,12.3,30.24,East,90,0.0,6.8,14,0.00,,,0.00,VWS V12.07,2013-03-01 00:46:00,
2013-02-28 17:51:00,62.6,12.9,30.24,East,90,0.0,6.8,14,0.00,,,0.00,VWS V12.07,2013-03-01 00:51:00,
2013-02-28 17:56:00,62.2,13.6,30.24,East,90,0.0,4.8,15,0.00,,,0.00,VWS V12.07,2013-03-01 00:56:00,
2013-02-28 18:00:00,62.2,14.0,30.24,East,90,0.0,4.8,15,0.00,,,0.00,VWS V12.07,2013-03-01 01:00:00,
2013-02-28 18:01:00,61.8,14.0,30.24,East,90,0.0,4.8,15,0.00,,,0.00,VWS V12.07,2013-03-01 01:01:00,
2013-02-28 18:06:00,61.3,14.0,30.24,East,90,0.0,4.8,16,0.00,,,0.00,VWS V12.07,2013-03-01 01:06:00,
2013-02-28 18:11:00,60.5,13.5,30.25,East,90,0.0,4.8,16,0.00,,,0.00,VWS V12.07,2013-03-01 01:11:00,
2013-02-28 18:16:00,59.5,14.0,30.26,WSW,256,4.7,5.7,16,0.00,,,0.00,VWS V12.07,2013-03-01 01:16:00,
2013-02-28 18:21:00,58.2,14.0,30.26,WSW,256,0.0,5.7,17,0.00,,,0.00,VWS V12.07,2013-03-01 01:21:00,
2013-02-28 18:26:00,57.3,14.1,30.26,WSW,249,0.0,5.7,18,0.00,,,0.00,VWS V12.07,2013-03-01 01:26:00,
2013-02-28 18:30:00,57.0,14.3,30.26,WSW,245,2.7,5.7,18,0.00,,,0.00,VWS V12.07,2013-03-01 01:30:00,
2013-02-28 18:31:00,56.5,14.3,30.26,WSW,250,0.0,5.7,19,0.00,,,0.00,VWS V12.07,2013-03-01 01:31:00,
2013-02-28 18:36:00,55.5,14.4,30.26,West,266,3.5,5.7,19,0.00,,,0.00,VWS V12.07,2013-03-01 01:36:00,
2013-02-28 18:41:00,54.7,14.7,30.26,WSW,240,0.0,5.7,20,0.00,,,0.00,VWS V12.07,2013-03-01 01:41:00,
2013-02-28 18:46:00,54.2,13.4,30.26,South,190,3.2,7.0,20,0.00,,,0.00,VWS V12.07,2013-03-01 01:46:00,
2013-02-28 18:51:00,54.2,14.1,30.27,South,170,0.0,8.2,20,0.00,,,0.00,VWS V12.07,2013-03-01 01:51:00,
2013-02-28 18:56:00,54.1,13.9,30.28,South,170,0.0,8.2,20,0.00,,,0.00,VWS V12.07,2013-03-01 01:56:00,
2013-02-28 19:00:00,54.1,13.9,30.28,South,170,0.0,8.2,20,0.00,,,0.00,VWS V12.07,2013-03-01 02:00:00,
2013-02-28 19:01:00,53.9,13.9,30.28,South,170,0.0,8.2,20,0.00,,,0.00,VWS V12.07,2013-03-01 02:01:00,
2013-02-28 19:06:00,53.9,13.8,30.28,SW,225,0.0,8.2,20,0.00,,,0.00,VWS V12.07,2013-03-01 02:06:00,
2013-02-28 19:11:00,53.8,13.8,30.28,WSW,242,0.0,8.2,20,0.00,,,0.00,VWS V12.07,2013-03-01 02:11:00,
2013-02-28 19:16:00,53.3,13.9,30.28,SW,225,0.0,8.2,21,0.00,,,0.00,VWS V12.07,2013-03-01 02:16:00,
2013-02-28 19:21:00,52.9,13.8,30.29,West,267,0.0,8.2,21,0.00,,,0.00,VWS V12.07,2013-03-01 02:21:00,
2013-02-28 19:26:00,52.8,13.4,30.29,WSW,242,0.0,8.2,20,0.00,,,0.00,VWS V12.07,2013-03-01 02:26:00,
2013-02-28 19:30:00,52.8,13.8,30.29,WSW,252,7.5,7.5,21,0.00,,,0.00,VWS V12.07,2013-03-01 02:30:00,
2013-02-28 19:31:00,52.3,13.6,30.29,WSW,257,5.0,8.2,21,0.00,,,0.00,VWS V12.07,2013-03-01 02:31:00,
2013-02-28 19:36:00,51.9,13.9,30.29,SW,236,0.0,8.2,22,0.00,,,0.00,VWS V12.07,2013-03-01 02:36:00,
2013-02-28 19:41:00,51.3,13.6,30.29,WSW,245,0.0,8.2,22,0.00,,,0.00,VWS V12.07,2013-03-01 02:41:00,
2013-02-28 19:46:00,50.8,13.3,30.30,WSW,238,0.0,8.2,22,0.00,,,0.00,VWS V12.07,2013-03-01 02:46:00,
2013-02-28 19:51:00,50.6,13.2,30.30,West,259,0.0,8.2,22,0.00,,,0.00,VWS V12.07,2013-03-01 02:51:00,
2013-02-28 19:56:00,50.1,13.0,30.30,WSW,252,3.1,8.1,22,0.00,,,0.00,VWS V12.07,2013-03-01 02:56:00,
2013-02-28 20:00:00,49.9,12.9,30.31,WSW,240,0.0,8.1,22,0.00,,,0.00,VWS V12.07,2013-03-01 03:00:00,
2013-02-28 20:01:00,49.7,13.0,30.30,SW,235,0.0,8.1,23,0.00,,,0.00,VWS V12.07,2013-03-01 03:01:00,
2013-02-28 20:06:00,49.4,13.0,30.30,SW,215,0.0,8.1,23,0.00,,,0.00,VWS V12.07,2013-03-01 03:06:00,
2013-02-28 20:11:00,49.1,13.0,30.30,West,270,0.0,8.1,23,0.00,,,0.00,VWS V12.07,2013-03-01 03:11:00,
2013-02-28 20:16:00,48.7,13.1,30.31,WSW,243,4.2,8.1,24,0.00,,,0.00,VWS V12.07,2013-03-01 03:16:00,
2013-02-28 20:21:00,48.7,12.5,30.30,SW,235,4.5,8.1,23,0.00,,,0.00,VWS V12.07,2013-03-01 03:21:00,
2013-02-28 20:26:00,49.2,12.5,30.30,SW,218,0.0,8.1,22,0.00,,,0.00,VWS V12.07,2013-03-01 03:26:00,
2013-02-28 20:30:00,49.2,12.4,30.30,SSW,205,4.6,7.8,22,0.00,,,0.00,VWS V12.07,2013-03-01 03:30:00,
2013-02-28 20:31:00,49.3,12.4,30.30,SW,215,0.0,8.1,22,0.00,,,0.00,VWS V12.07,2013-03-01 03:31:00,
2013-02-28 20:36:00,49.3,12.3,30.30,SW,229,0.0,8.1,22,0.00,,,0.00,VWS V12.07,2013-03-01 03:36:00,
2013-02-28 20:41:00,49.4,12.1,30.31,SW,222,0.0,8.1,22,0.00,,,0.00,VWS V12.07,2013-03-01 03:41:00,
2013-02-28 20:47:00,49.5,12.1,30.31,WSW,242,0.0,8.1,22,0.00,,,0.00,VWS V12.07,2013-03-01 03:47:00,
2013-02-28 20:52:00,49.5,12.1,30.31,SW,219,0.0,8.6,22,0.00,,,0.00,VWS V12.07,2013-03-01 03:52:00,
2013-02-28 20:57:00,49.4,12.2,30.31,West,263,0.0,8.6,22,0.00,,,0.00,VWS V12.07,2013-03-01 03:57:00,
2013-02-28 21:00:00,49.3,12.1,30.31,West,263,0.0,8.6,22,0.00,,,0.00,VWS V12.07,2013-03-01 04:00:00,
2013-02-28 21:02:00,49.3,12.2,30.31,West,263,0.0,8.6,22,0.00,,,0.00,VWS V12.07,2013-03-01 04:02:00,
2013-02-28 21:07:00,48.8,12.1,30.31,WSW,257,0.0,8.6,22,0.00,,,0.00,VWS V12.07,2013-03-01 04:07:00,
2013-02-28 21:12:00,48.4,12.0,30.32,WSW,257,0.0,8.6,23,0.00,,,0.00,VWS V12.07,2013-03-01 04:12:00,
2013-02-28 21:17:00,48.2,12.1,30.32,WSW,257,0.0,8.6,23,0.00,,,0.00,VWS V12.07,2013-03-01 04:17:00,
2013-02-28 21:22:00,47.8,12.3,30.31,WSW,257,0.0,8.6,24,0.00,,,0.00,VWS V12.07,2013-03-01 04:22:00,
2013-02-28 21:27:00,47.5,12.2,30.32,WSW,257,0.0,8.6,24,0.00,,,0.00,VWS V12.07,2013-03-01 04:27:00,
2013-02-28 21:30:00,47.3,12.3,30.32,WSW,257,0.0,2.1,24,0.00,,,0.00,VWS V12.07,2013-03-01 04:30:00,
2013-02-28 21:32:00,47.1,12.2,30.32,WSW,257,0.0,8.6,24,0.00,,,0.00,VWS V12.07,2013-03-01 04:32:00,
2013-02-28 21:37:00,47.0,12.4,30.33,WSW,257,0.0,8.6,24,0.00,,,0.00,VWS V12.07,2013-03-01 04:37:00,
2013-02-28 21:42:00,46.3,12.5,30.33,WSW,250,0.0,8.6,25,0.00,,,0.00,VWS V12.07,2013-03-01 04:42:00,
2013-02-28 21:47:00,45.8,12.5,30.34,WSW,250,0.0,8.6,26,0.00,,,0.00,VWS V12.07,2013-03-01 04:47:00,
2013-02-28 21:52:00,45.9,12.8,30.34,WSW,250,0.0,8.6,26,0.00,,,0.00,VWS V12.07,2013-03-01 04:52:00,
2013-02-28 21:57:00,45.6,13.1,30.35,WSW,250,0.0,8.0,26,0.00,,,0.00,VWS V12.07,2013-03-01 04:57:00,
2013-02-28 22:00:00,45.3,13.0,30.35,WSW,250,0.0,8.0,27,0.00,,,0.00,VWS V12.07,2013-03-01 05:00:00,
2013-02-28 22:05:00,45.0,13.1,30.35,WSW,250,0.0,8.0,27,0.00,,,0.00,VWS V12.07,2013-03-01 05:05:00,
2013-02-28 22:06:00,45.0,13.2,30.35,WSW,250,0.0,8.0,27,0.00,,,0.00,VWS V12.07,2013-03-01 05:06:00,
2013-02-28 22:11:00,44.6,13.3,30.35,WSW,250,0.0,8.0,28,0.00,,,0.00,VWS V12.07,2013-03-01 05:11:00,
2013-02-28 22:16:00,44.0,13.3,30.35,WSW,250,0.0,8.0,28,0.00,,,0.00,VWS V12.07,2013-03-01 05:16:00,
2013-02-28 22:21:00,43.6,13.3,30.34,WSW,250,0.0,8.0,29,0.00,,,0.00,VWS V12.07,2013-03-01 05:21:00,
2013-02-28 22:26:00,43.6,13.4,30.34,WSW,250,0.0,8.0,29,0.00,,,0.00,VWS V12.07,2013-03-01 05:26:00,
2013-02-28 22:30:00,43.5,13.3,30.35,WSW,250,0.0,0.0,29,0.00,,,0.00,VWS V12.07,2013-03-01 05:30:00,
2013-02-28 22:31:00,43.5,13.3,30.34,WSW,250,0.0,8.0,29,0.00,,,0.00,VWS V12.07,2013-03-01 05:31:00,
2013-02-28 22:36:00,43.4,13.7,30.35,WSW,250,0.0,8.0,30,0.00,,,0.00,VWS V12.07,2013-03-01 05:36:00,
2013-02-28 22:41:00,43.7,13.8,30.35,WSW,250,0.0,8.0,29,0.00,,,0.00,VWS V12.07,2013-03-01 05:41:00,
2013-02-28 22:46:00,43.6,14.0,30.35,WSW,250,0.0,8.0,30,0.00,,,0.00,VWS V12.07,2013-03-01 05:46:00,
2013-02-28 22:51:00,43.7,14.1,30.35,WSW,250,0.0,8.0,30,0.00,,,0.00,VWS V12.07,2013-03-01 05:51:00,
2013-02-28 22:56:00,43.7,14.3,30.35,WSW,250,0.0,0.0,30,0.00,,,0.00,VWS V12.07,2013-03-01 05:56:00,
2013-02-28 23:00:00,43.6,14.5,30.35,WSW,250,0.0,0.0,30,0.00,,,0.00,VWS V12.07,2013-03-01 06:00:00,
2013-02-28 23:01:00,43.5,14.4,30.35,WSW,250,0.0,0.0,30,0.00,,,0.00,VWS V12.07,2013-03-01 06:01:00,
2013-02-28 23:06:00,43.0,14.4,30.35,WSW,250,0.0,0.0,31,0.00,,,0.00,VWS V12.07,2013-03-01 06:06:00,
2013-02-28 23:11:00,42.5,14.6,30.35,WSW,250,0.0,0.0,32,0.00,,,0.00,VWS V12.07,2013-03-01 06:11:00,
2013-02-28 23:16:00,42.0,14.6,30.36,WSW,250,0.0,0.0,32,0.00,,,0.00,VWS V12.07,2013-03-01 06:16:00,
2013-02-28 23:21:00,41.4,14.5,30.35,WSW,250,0.0,0.0,33,0.00,,,0.00,VWS V12.07,2013-03-01 06:21:00,
2013-02-28 23:26:00,41.0,14.7,30.36,WSW,250,0.0,0.0,34,0.00,,,0.00,VWS V12.07,2013-03-01 06:26:00,
2013-02-28 23:30:00,40.8,14.6,30.36,WSW,250,0.0,0.0,34,0.00,,,0.00,VWS V12.07,2013-03-01 06:30:00,
2013-02-28 23:31:00,40.5,14.7,30.36,WSW,250,0.0,0.0,34,0.00,,,0.00,VWS V12.07,2013-03-01 06:31:00,
2013-02-28 23:36:00,39.8,14.4,30.36,WSW,250,0.0,0.0,35,0.00,,,0.00,VWS V12.07,2013-03-01 06:36:00,
2013-02-28 23:41:00,39.5,14.1,30.36,WSW,250,0.0,0.0,35,0.00,,,0.00,VWS V12.07,2013-03-01 06:41:00,
2013-02-28 23:46:00,39.2,14.2,30.36,WSW,250,0.0,0.0,36,0.00,,,0.00,VWS V12.07,2013-03-01 06:46:00,
2013-02-28 23:51:00,39.0,14.3,30.36,WSW,250,0.0,0.0,36,0.00,,,0.00,VWS V12.07,2013-03-01 06:51:00,
2013-02-28 23:56:00,38.6,14.4,30.36,WSW,250,0.0,0.0,37,0.00,,,0.00,VWS V12.07,2013-03-01 06:56:00,